Date String (YYYY-MM-DD hh:mm:ss) UTC,Instrument flags,absolute air pressure of the measurement (hPa),sample flow rate (lpm),inlet stack bypass flow (lpm),air temperature of the measurement (°C),ambient temperature measured by the external sensor (°C),aerosol sample conditioner tube jacket temperature (°C),OPC LED temperature (°C),internal box temperature (°C),relative humidity of the measurement (%),span deviation,mass concentration of particles derived from Lorenz-Mie calculation of OPC scattering (μg/m³),mass concentration of particles derived from Lorenz-Mie calculation of OPC scattering (μg/m³),mass concentration of particles derived from Lorenz-Mie calculation of OPC scattering (μg/m³)
DateTimeUTC,F1_M11,P_M11,Q1_M11,Q2_M11,T1_M11,T2_M11,T3_M11,T4_M11,T5_M11,U1_M11,ZSPAN_M11,X2_M11,X0_M11,X1_M11
2024-01-23 10:00:00,SystemResetWarning,0825.3,5.00,000.00,023.0,021.9,000.0,031.4,024.4,16.7,0002.8,0008.68,0012.53,0008.34
2024-01-23 10:01:00,SystemResetWarning,0825.4,5.00,000.00,023.0,021.9,000.0,031.4,024.4,16.7,0002.6,0008.77,0012.65,0008.44
2024-01-23 10:02:00,SystemResetWarning,0825.3,5.00,000.00,023.0,022.0,000.0,031.4,024.4,16.7,0002.4,0008.83,0012.66,0008.50
2024-01-23 10:03:00,SystemResetWarning,0825.3,5.00,000.00,023.0,022.0,000.0,031.4,024.4,16.7,0002.2,0008.86,0012.66,0008.54
2024-01-23 10:04:00,SystemResetWarning,0825.3,5.00,000.00,023.0,022.0,000.0,031.4,024.4,16.6,0002.1,0008.91,0012.73,0008.58
2024-01-23 10:05:00,SystemResetWarning,0825.4,5.00,000.00,023.0,022.0,000.0,031.4,024.4,16.7,0002.1,0008.96,0012.81,0008.62
2024-01-23 10:06:00,SystemResetWarning,0825.3,5.00,000.00,023.0,022.0,000.0,031.4,024.4,16.6,0002.1,0008.98,0012.78,0008.63
2024-01-23 10:07:00,SystemResetWarning,0825.3,5.01,000.00,023.0,022.1,000.0,031.4,024.4,16.6,0002.1,0009.00,0012.76,0008.64
2024-01-23 10:08:00,SystemResetWarning,0825.3,4.99,000.00,023.0,022.1,000.0,031.4,024.4,16.7,0002.1,0008.99,0012.65,0008.62
2024-01-23 10:09:00,SystemResetWarning,0825.3,4.99,000.00,023.0,022.1,000.0,031.4,024.4,16.7,0001.9,0008.96,0012.45,0008.58
2024-01-23 10:10:00,SystemResetWarning,0825.3,4.99,000.00,023.0,022.1,000.0,031.3,024.4,16.7,0001.5,0008.91,0012.34,0008.55
2024-01-23 10:11:00,SystemResetWarning,0825.3,5.00,000.00,023.0,022.1,000.0,031.3,024.4,16.7,0001.5,0008.85,0012.21,0008.50
2024-01-23 10:12:00,SystemResetWarning,0825.3,5.01,000.00,023.0,022.1,000.0,031.3,024.4,16.7,0001.7,0008.79,0012.18,0008.43
2024-01-23 10:13:00,SystemResetWarning,0825.3,5.00,000.00,023.0,022.1,000.0,031.3,024.4,16.7,0001.7,0008.73,0012.10,0008.37
2024-01-23 10:14:00,SystemResetWarning,0825.3,5.01,000.00,023.0,022.1,000.0,031.3,024.4,16.8,0001.9,0008.71,0012.14,0008.34
2024-01-23 10:15:00,SystemResetWarning,0825.3,4.99,000.00,023.0,022.1,000.0,031.3,024.4,16.8,0002.0,0008.68,0012.18,0008.29
2024-01-23 10:16:00,SystemResetWarning,0825.3,4.99,000.00,023.0,022.1,000.0,031.3,024.4,16.8,0002.0,0008.60,0012.12,0008.24
2024-01-23 10:17:00,SystemResetWarning,0825.3,5.00,000.00,023.0,022.1,000.0,031.3,024.4,16.8,0001.7,0008.56,0011.99,0008.22
2024-01-23 10:18:00,SystemResetWarning,0825.2,5.00,000.00,023.0,022.1,000.0,031.3,024.4,16.8,0001.7,0008.55,0011.98,0008.21
2024-01-23 10:19:00,SystemResetWarning,0825.2,5.00,000.00,023.0,022.1,000.0,031.3,024.4,16.9,0001.8,0008.55,0012.02,0008.22
2024-01-23 10:20:00,SystemResetWarning,0825.3,5.00,000.00,023.0,022.1,000.0,031.3,024.4,16.8,0002.0,0008.56,0012.06,0008.23
2024-01-23 10:21:00,SystemResetWarning,0825.3,5.00,000.00,023.0,022.1,000.0,031.3,024.4,16.8,0002.1,0008.54,0011.97,0008.24
2024-01-23 10:22:00,SystemResetWarning,0825.2,5.00,000.00,023.0,022.1,000.0,031.3,024.4,16.8,0002.3,0008.60,0012.37,0008.29
2024-01-23 10:23:00,SystemResetWarning,0825.2,5.00,000.00,023.0,022.1,000.0,031.3,024.4,16.7,0002.3,0008.66,0012.52,0008.35
2024-01-23 10:24:00,SystemResetWarning,0825.3,4.99,000.00,023.0,022.1,000.0,031.3,024.4,16.6,0002.6,0008.70,0012.53,0008.39
2024-01-23 10:25:00,SystemResetWarning,0825.2,5.00,000.00,023.0,022.1,000.0,031.3,024.4,16.5,0002.7,0008.68,0012.53,0008.36
2024-01-23 10:26:00,SystemResetWarning,0825.3,5.00,000.00,023.0,022.1,000.0,031.3,024.4,16.5,0002.5,0008.68,0012.57,0008.35
2024-01-23 10:27:00,SystemResetWarning,0825.3,5.00,000.00,023.0,022.1,000.0,031.3,024.4,16.5,0002.6,0008.69,0012.53,0008.36
2024-01-23 10:28:00,SystemResetWarning,0825.3,5.00,000.00,023.0,022.1,000.0,031.3,024.4,16.5,0002.6,0008.72,0012.57,0008.39
2024-01-23 10:29:00,SystemResetWarning,0825.2,5.00,000.00,023.0,022.1,000.0,031.3,024.4,16.5,0002.6,0008.70,0012.56,0008.37
2024-01-23 10:30:00,SystemResetWarning,0825.2,5.00,000.00,023.0,022.1,000.0,031.3,024.4,16.6,0002.6,0008.65,0012.45,0008.34
2024-01-23 10:31:00,SystemResetWarning,0825.2,5.00,000.00,023.0,022.1,000.0,031.3,024.4,16.5,0002.4,0008.62,0012.51,0008.30
2024-01-23 10:32:00,SystemResetWarning,0825.2,5.00,000.00,023.0,022.1,000.0,031.3,024.4,16.5,0002.4,0008.57,0012.46,0008.24
2024-01-23 10:33:00,SystemResetWarning,0825.3,5.00,000.00,023.0,022.1,000.0,031.3,024.4,16.5,0002.2,0008.48,0012.06,0008.16
2024-01-23 10:34:00,SystemResetWarning,0825.3,5.00,000.00,023.0,022.1,000.0,031.3,024.4,16.4,0002.1,0008.41,0011.85,0008.09
2024-01-23 10:35:00,SystemResetWarning,0825.2,5.00,000.00,023.0,022.1,000.0,031.3,024.4,16.5,0001.9,0008.35,0011.82,0008.03
2024-01-23 10:36:00,SystemResetWarning,0825.2,5.00,000.00,023.0,022.1,000.0,031.3,024.4,16.5,0001.6,0008.33,0011.75,0008.02
2024-01-23 10:37:00,SystemResetWarning,0825.2,5.00,000.00,023.0,022.1,000.0,031.3,024.4,16.5,0001.8,0008.31,0011.62,0008.02
2024-01-23 10:38:00,SystemResetWarning,0825.2,5.00,000.00,023.0,022.1,000.0,031.3,024.4,16.5,0001.5,0008.28,0011.61,0007.99
2024-01-23 10:39:00,SystemResetWarning,0825.2,5.00,000.00,023.0,022.1,000.0,031.3,024.4,16.5,0001.6,0008.25,0011.56,0007.96
2024-01-23 10:40:00,SystemResetWarning,0825.2,5.00,000.00,023.0,022.1,000.0,031.3,024.4,16.5,0001.7,0008.25,0011.51,0007.97
2024-01-23 10:41:00,SystemResetWarning,0825.2,5.00,000.00,023.0,022.1,000.0,031.3,024.4,16.5,0001.6,0008.25,0011.49,0007.97
2024-01-23 10:42:00,SystemResetWarning,0825.2,5.00,000.00,023.0,022.1,000.0,031.3,024.4,16.5,0001.6,0008.24,0011.73,0007.97
2024-01-23 10:43:00,SystemResetWarning,0825.2,5.00,000.00,023.0,022.1,000.0,031.3,024.4,16.5,0001.5,0008.29,0011.84,0008.03
2024-01-23 10:44:00,SystemResetWarning,0825.2,5.00,000.00,023.0,022.1,000.0,031.3,024.4,16.5,0001.5,0008.41,0012.11,0008.12
2024-01-23 10:45:00,SystemResetWarning,0825.2,5.00,000.00,023.0,022.1,000.0,031.3,024.4,16.5,0001.7,0008.47,0012.27,0008.19
2024-01-23 10:46:00,SystemResetWarning,0825.2,5.00,000.00,023.0,022.1,000.0,031.3,024.4,16.5,0001.7,0008.49,0012.31,0008.21
2024-01-23 10:47:00,SystemResetWarning,0825.2,4.99,000.00,023.0,022.1,000.0,031.3,024.4,16.4,0002.0,0008.50,0012.64,0008.17
2024-01-23 10:48:00,SystemResetWarning,0825.1,5.00,000.00,023.0,022.1,000.0,031.3,024.4,16.4,0001.8,0008.47,0013.74,0008.10
2024-01-23 10:49:00,SystemResetWarning,0825.1,5.01,000.00,023.0,022.1,000.0,031.3,024.4,16.5,0001.9,0008.41,0013.69,0008.03
2024-01-23 10:50:00,SystemResetWarning,0825.1,5.00,000.00,023.0,022.1,000.0,031.3,024.4,16.5,0001.9,0008.31,0013.57,0007.93
2024-01-23 10:51:00,SystemResetWarning,0825.1,5.01,000.00,023.0,022.1,000.0,031.3,024.4,16.5,0001.9,0008.20,0013.44,0007.82
2024-01-23 10:52:00,SystemResetWarning,0825.1,5.01,000.00,023.0,022.1,000.0,031.3,024.3,16.5,0001.9,0008.08,0013.31,0007.70
2024-01-23 10:53:00,SystemResetWarning,0825.1,5.00,000.00,022.9,022.1,000.0,031.3,024.3,16.5,0002.2,0008.00,0013.13,0007.59
2024-01-23 10:54:00,SystemResetWarning,0825.1,5.00,000.00,022.9,022.1,000.0,031.3,024.3,16.5,0002.3,0007.89,0013.20,0007.46
2024-01-23 10:55:00,SystemResetWarning,0825.1,5.00,000.00,022.9,022.0,000.0,031.3,024.3,16.5,0002.1,0007.81,0013.52,0007.36
2024-01-23 10:56:00,SystemResetWarning,0825.1,4.99,000.00,022.9,022.0,000.0,031.3,024.3,16.5,0002.1,0007.69,0013.30,0007.24
2024-01-23 10:57:00,SystemResetWarning,0825.1,5.00,000.00,022.9,022.0,000.0,031.3,024.3,16.6,0002.2,0007.64,0013.17,0007.20
2024-01-23 10:58:00,SystemResetWarning,0825.1,5.01,000.00,022.9,022.0,000.0,031.3,024.3,16.6,0002.2,0007.65,0013.10,0007.22
2024-01-23 10:59:00,SystemResetWarning,0825.1,5.00,000.00,022.9,022.0,000.0,031.3,024.3,16.6,0002.2,0007.67,0011.86,0007.25
